Location: Newark
(55.7833°N, 49.1667°E)
Time: 11:33:41
(UTC+00:00)

ISS - Visible Passes

Search period start: 20 September 2020 00:00
Search period end: 30 September 2020 00:00
Orbit: 419 x 420 km, 51.6° (Epoch: 20 September)

Date Brightness Start Highest point End Pass type
(mag) Time Alt. Az. Time Alt. Az. Time Alt. Az.
20 Sep -2.4 16:35:25 10° SW 16:37:55 25° SSE 16:37:55 25° SSE visible
21 Sep -2.2 15:48:27 10° SSW 15:51:01 20° SSE 15:52:33 15° ESE visible
21 Sep -1.7 17:24:08 10° WSW 17:25:31 21° SW 17:25:31 21° SW visible
22 Sep -3.0 16:36:53 10° SW 16:40:00 35° SSE 16:40:03 35° SSE visible
23 Sep -2.7 15:49:41 10° SW 15:52:42 30° SSE 15:54:30 18° ESE visible
23 Sep -1.8 17:25:55 10° WSW 17:27:27 23° WSW 17:27:27 23° WSW visible
24 Sep -3.2 16:38:34 10° WSW 16:41:47 41° S 16:41:51 41° S visible
25 Sep -3.0 15:51:15 10° WSW 15:54:26 39° S 15:56:11 21° ESE visible
25 Sep -1.6 17:27:45 10° W 17:29:09 20° WSW 17:29:09 20° WSW visible
26 Sep -2.8 15:03:57 10° SW 15:07:05 35° SSE 15:10:12 10° E visible
26 Sep -3.0 16:40:21 10° WSW 16:43:28 38° S 16:43:28 38° S visible
27 Sep -3.0 15:52:57 10° WSW 15:56:09 40° S 15:57:46 23° SE visible
27 Sep -1.2 17:29:42 10° W 17:30:43 16° WSW 17:30:43 16° WSW visible
28 Sep -2.9 15:05:33 10° WSW 15:08:46 41° S 15:11:58 10° ESE visible
28 Sep -2.4 16:42:11 10° W 16:45:01 29° SSW 16:45:01 29° SSW visible
29 Sep -2.7 15:54:42 10° W 15:57:49 34° SSW 15:59:19 23° SE visible
29 Sep -0.8 17:31:58 10° WSW 17:32:16 11° WSW 17:32:16 11° WSW visible
